Location: St. Louis
(38.6270°N, 90.1994°W)
Time: 21:20:19
(UTC-06:00)

Altair - Pass Details

Date: 07 December 2021
Orbit: 1501 x 1683 km, 47.2° (Epoch: 26 January)

Event Time Altitude Azimuth Distance (km) Brightness Sun altitude
Rises 18:04:27 0° 288° (WNW) 4,733 11.0 -16.2°
Reaches altitude 10° 18:07:41 10° 293° (WNW) 3,726 10.3 -16.8°
Maximum altitude 18:16:47 52° 9° (N) 1,820 7.7 -18.5°
Enters shadow 18:21:46 28° 71° (ENE) 2,541 8.0 -19.4°
